Voltar ao catálogo

NORBI-2

AtivoRádio AmadorPO
NORAD 57206·PAYLOAD·🇷🇺 Russia
Este nome de satélite ainda não foi confirmado por fontes oficiais.

Lançado Jun 27, 2023 de Vostochny Cosmodrome

Loading…

Próximas Passagens (próximas 24 horas)

TLE

AtualizadoSource: Space-Track

Época: Sep 14, 2026, 12:49 UTC

1 57206U 23091AS  26257.53471444  .00239185  00000-0  98242-3 0  9995
2 57206  97.4914 344.1137 0002176 247.6125 112.4914 15.85379066179438

Acompanhe NORBI-2 em tempo real com AllMySat

Download on the App Store